West Memphis, AR

3:09 AM CDT on April 21, 2018 (GMT -0500)
West Memphis Municipal

Weather History for KAWM - January, 2014

Change the Weather History Date:

Sunday, January 5, 2014

  Actual Average Record
Temperature  
Mean Temperature 35 °F -  
Max Temperature 51 °F 46 °F 69 °F (2005)
Min Temperature 18 °F 27 °F 10 °F (1985)
Degree Days  
Heating Degree Days 30    
Moisture  
Dew Point 45 °F    
Average Humidity 87    
Maximum Humidity 100    
Minimum Humidity 71    
Precipitation  
Precipitation 0.39 in - - ()
Sea Level Pressure  
Sea Level Pressure 29.91 in    
Wind  
Wind Speed 17 mph (WNW)    
Max Wind Speed 24 mph    
Max Gust Speed 38 mph    
Visibility 8 miles    
Events Rain    
Averages and records for this station are not official NWS values.
T = Trace of Precipitation, MM = Missing Value Source: NWS Daily Summary

Daily Weather History Graph

Daily Weather History Graph

Search for Another Location

Airport or City:

Astronomy

Jan. 05, 2014 Rise Set
Actual Time 7:09 AM CST 5:03 PM CST
Civil Twilight 6:41 AM CST 5:31 PM CST
Nautical Twilight 6:10 AM CST 6:02 PM CST
Astronomical Twilight 5:39 AM CST 6:33 PM CST
Moon 10:03 AM CST (1/5) 10:18 PM CST (1/5)
Length of Visible Light 10h 49m
Length of Day
9h 53m
Waxing Crescent, 25% of the Moon is Illuminated
Jan 5
Waxing Crescent
Jan 7
First Quarter
Jan 15
Full
Jan 23
Last Quarter
Jan 30
New

Hourly Weather History & Observations

Time (CST) Temp. Windchill Dew Point Humidity Pressure Visibility Wind Dir Wind Speed Gust Speed Precip Events Conditions
12:53 AM 48.9 °F - 39.9 °F 71% 29.93 in 10.0 mi South 19.6 mph - N/A   Overcast
1:53 AM 48.9 °F - 39.9 °F 71% 29.91 in 10.0 mi South 18.4 mph - N/A   Overcast
2:53 AM 48.0 °F - 42.1 °F 80% 29.89 in 10.0 mi SSE 17.3 mph - 0.00 in Rain Light Rain
3:53 AM 48.0 °F - 41.0 °F 77% 29.87 in 10.0 mi South 16.1 mph - 0.00 in Rain Light Rain
4:53 AM 46.9 °F - 43.0 °F 86% 29.83 in 10.0 mi South 11.5 mph - 0.01 in Rain Light Rain
5:53 AM 48.0 °F - 44.1 °F 86% 29.81 in 10.0 mi SSE 12.7 mph - 0.01 in Rain Light Rain
6:53 AM 48.0 °F - 44.1 °F 86% 29.79 in 10.0 mi SSE 16.1 mph - 0.03 in   Overcast
7:53 AM 48.0 °F - 45.0 °F 89% 29.77 in 4.0 mi South 20.7 mph - 0.08 in Rain Light Rain
8:53 AM 48.9 °F - 45.0 °F 86% 29.75 in 4.0 mi South 17.3 mph - 0.03 in Rain Rain
9:53 AM 50.0 °F - 46.9 °F 89% 29.73 in 10.0 mi South 18.4 mph 27.6 mph 0.01 in   Overcast
10:07 AM 50.0 °F - 46.4 °F 87% 29.73 in 5.0 mi South 18.4 mph 26.5 mph 0.01 in Rain Rain
10:53 AM 51.1 °F - 48.0 °F 89% 29.71 in 5.0 mi South 21.9 mph 27.6 mph 0.04 in Rain Light Rain
11:34 AM 51.8 °F - 48.2 °F 88% 29.69 in 6.0 mi SSW 13.8 mph 23.0 mph 0.06 in Rain Light Rain
11:53 AM 51.1 °F - 48.9 °F 92% 29.69 in 2.5 mi SSW 13.8 mph 19.6 mph 0.07 in Rain Light Rain
12:06 PM 51.8 °F - 50.0 °F 94% 29.70 in 2.5 mi West 9.2 mph 17.3 mph 0.02 in Rain Light Rain
12:16 PM 44.6 °F 37.4 °F 44.6 °F 100% 29.72 in 1.5 mi WNW 16.1 mph 24.2 mph 0.07 in Rain Rain
12:23 PM 42.8 °F 36.2 °F 42.8 °F 100% 29.73 in 3.0 mi NW 12.7 mph 25.3 mph 0.08 in Rain Light Rain
12:37 PM 41.0 °F 32.2 °F - N/A% 29.75 in 2.5 mi NW 18.4 mph 28.8 mph 0.09 in Rain Light Rain
12:49 PM 39.2 °F 28.5 °F - N/A% 29.76 in 3.0 mi NW 24.2 mph 38.0 mph 0.09 in Rain Light Rain
12:53 PM 37.9 °F 27.3 °F - N/A% 29.78 in 3.0 mi NW 21.9 mph 38.0 mph 0.09 in Rain Light Rain
1:33 PM 33.8 °F 23.2 °F - N/A% 29.81 in 7.0 mi NW 17.3 mph 34.5 mph 0.02 in Rain Light Rain
1:53 PM 30.9 °F 22.2 °F - N/A% 29.84 in 8.0 mi NNW 10.4 mph 27.6 mph 0.02 in   Overcast
2:53 PM 28.9 °F 17.7 °F - N/A% 29.90 in 10.0 mi NW 15.0 mph 26.5 mph 0.00 in   Overcast
3:38 PM 28.4 °F 16.6 °F - N/A% 29.94 in 10.0 mi NW 16.1 mph 29.9 mph N/A   Overcast
3:53 PM 28.0 °F 16.5 °F - N/A% 29.96 in 10.0 mi NNW 15.0 mph 27.6 mph N/A   Overcast
4:53 PM 26.1 °F 13.1 °F - N/A% 30.02 in 10.0 mi NW 17.3 mph 29.9 mph N/A   Overcast
5:53 PM 25.0 °F 12.2 °F - N/A% 30.09 in 10.0 mi NW 16.1 mph 28.8 mph N/A   Overcast
6:53 PM 25.0 °F 11.7 °F - N/A% 30.14 in 10.0 mi NNW 17.3 mph 27.6 mph N/A   Overcast
7:53 PM 24.1 °F 11.5 °F - N/A% 30.19 in 10.0 mi NNW 15.0 mph 28.8 mph N/A   Overcast
8:53 PM 21.9 °F 10.4 °F - N/A% 30.25 in 10.0 mi North 11.5 mph 25.3 mph N/A   Overcast
9:53 PM 21.0 °F 6.6 °F - N/A% 30.28 in 10.0 mi North 17.3 mph 32.2 mph N/A   Overcast
10:40 PM 19.4 °F 4.5 °F - N/A% 30.32 in 10.0 mi NNW 17.3 mph 26.5 mph N/A   Overcast
10:53 PM 19.9 °F 6.7 °F - N/A% 30.34 in 10.0 mi NNW 13.8 mph 29.9 mph N/A   Overcast
11:53 PM 18.0 °F 3.6 °F - N/A% 30.36 in 10.0 mi North 15.0 mph 24.2 mph N/A   Clear